This demonstration page uses our WeatherBlox Daily Observations layout. Learn more.

Left ArrowRight Arrow

Hourly Observations for July 27, 2022

Temp ( °F °C ) Dew Point ( °F °C ) Humidity (%) Winds ( mph kmh ) Pressure ( in mb ) Visibility ( mi km ) Precip ( " mm )
12:15 am 00:15 Mostly Cloudy 70 21 70 21 100 100 Calm 30.01 1016 10 16 0.00 0.00
12:35 am 00:35 Mostly Cloudy 70 21 70 21 100 100 Calm 30.01 1016 10 16 0.00 0.00
12:55 am 00:55 Cloudy 70 21 70 21 100 100 Calm 30.01 1016 10 16 0.00 0.00
1:15 am 01:15 Cloudy 70 21 70 21 100 100 Calm 30.01 1016 10 16 0.00 0.00
1:35 am 01:35 Mostly Cloudy 70 21 68 20 94 94 Calm 30.00 1016 10 16 0.00 0.00
1:55 am 01:55 Mostly Cloudy 70 21 70 21 100 100 Calm 30.00 1016 10 16 0.00 0.00
2:15 am 02:15 Partly Cloudy 70 21 70 21 100 100 Calm 29.99 1016 10 16 0.00 0.00
2:35 am 02:35 Partly Cloudy 70 21 68 20 94 94 Calm 29.99 1016 10 16 0.00 0.00
2:55 am 02:55 Clear 70 21 68 20 94 94 Calm 29.99 1016 10 16 0.00 0.00
3:15 am 03:15 Partly Cloudy 68 20 68 20 100 100 Calm 29.99 1016 10 16 0.00 0.00
3:35 am 03:35 Clear 68 20 68 20 100 100 Calm 29.99 1016 10 16 0.00 0.00
3:55 am 03:55 Mostly Cloudy 68 20 68 20 100 100 Calm 29.99 1016 10 16 0.00 0.00
4:15 am 04:15 Cloudy 70 21 68 20 94 94 Calm 29.99 1016 10 16 0.00 0.00
4:35 am 04:35 Mostly Cloudy 70 21 68 20 94 94 Calm 29.97 1015 10 16 0.00 0.00
4:55 am 04:55 Partly Cloudy 68 20 68 20 100 100 Calm 29.97 1015 10 16 0.00 0.00
5:15 am 05:15 Partly Cloudy 68 20 68 20 100 100 Calm 29.97 1015 10 16 0.00 0.00
5:35 am 05:35 Mostly Cloudy 68 20 68 20 100 100 Calm 29.98 1015 10 16 0.00 0.00
5:55 am 05:55 Cloudy 70 21 68 20 94 94 Calm 29.98 1015 10 16 0.00 0.00
6:15 am 06:15 Cloudy 68 20 68 20 100 100 Calm 29.99 1016 10 16 0.00 0.00
6:35 am 06:35 Cloudy 70 21 68 20 94 94 Calm 29.99 1016 10 16 0.00 0.00
6:55 am 06:55 Cloudy 70 21 68 20 94 94 Calm 29.99 1016 10 16 0.00 0.00
7:15 am 07:15 Cloudy 70 21 68 20 94 94 Calm 29.99 1016 10 16 0.00 0.00
7:35 am 07:35 Cloudy 72 22 70 21 94 94 Calm 29.99 1016 10 16 0.00 0.00
7:55 am 07:55 Cloudy 72 22 70 21 94 94 Calm 29.99 1016 10 16 0.00 0.00
8:15 am 08:15 Cloudy 72 22 70 21 94 94 Calm 29.99 1016 10 16 0.00 0.00
8:35 am 08:35 Mostly Cloudy 73 23 70 21 89 89 Calm 29.97 1015 10 16 0.00 0.00
8:55 am 08:55 Mostly Cloudy 75 24 70 21 83 83 Calm 29.97 1015 10 16 0.00 0.00
9:15 am 09:15 Partly Cloudy 77 25 72 22 83 83 SW 3 6 29.96 1015 10 16 0.00 0.00
9:35 am 09:35 Sunny 77 25 72 22 83 83 Calm 29.96 1015 10 16 0.00 0.00
9:55 am 09:55 Mostly Cloudy 79 26 72 22 79 79 WNW 5 7 29.98 1015 10 16 0.00 0.00
10:15 am 10:15 Cloudy 79 26 72 22 79 79 WNW 3 6 29.98 1015 10 16 0.00 0.00
10:35 am 10:35 Mostly Cloudy 81 27 73 23 79 79 NNW 3 6 29.98 1015 10 16 0.00 0.00
10:55 am 10:55 Partly Cloudy 81 27 72 22 74 74 Calm 29.98 1015 10 16 0.00 0.00
11:15 am 11:15 Mostly Cloudy 82 28 72 22 70 70 Calm 29.97 1015 10 16 0.00 0.00
11:35 am 11:35 Mostly Cloudy 82 28 72 22 70 70 Calm 29.96 1015 10 16 0.00 0.00
11:55 am 11:55 Mostly Cloudy 82 28 72 22 70 70 W 5 7 29.96 1015 10 16 0.00 0.00
12:15 pm 12:15 Cloudy 84 29 72 22 66 66 Calm 29.96 1015 10 16 0.00 0.00
12:35 pm 12:35 Mostly Cloudy 86 30 72 22 62 62 Calm 29.95 1014 10 16 0.00 0.00
12:55 pm 12:55 Partly Cloudy 86 30 72 22 62 62 Calm 29.95 1014 10 16 0.00 0.00
1:15 pm 13:15 Partly Cloudy 86 30 73 23 66 66 Calm 29.95 1014 10 16 0.00 0.00
1:35 pm 13:35 Mostly Cloudy 86 30 73 23 66 66 SSE 3 6 29.95 1014 10 16 0.00 0.00
1:55 pm 13:55 Mostly Cloudy 88 31 73 23 62 62 Calm 29.95 1014 10 16 0.00 0.00
2:15 pm 14:15 Cloudy 86 30 73 23 66 66 WSW 5 7 29.94 1014 10 16 0.00 0.00
2:35 pm 14:35 Cloudy with Light Rain 86 30 73 23 66 66 Calm 29.94 1014 10 16 0.00 0.00
2:55 pm 14:55 Mostly Cloudy 86 30 73 23 66 66 SW 3 6 29.94 1014 10 16 0.00 0.00
3:15 pm 15:15 Partly Cloudy 86 30 75 24 70 70 WSW 6 9 29.94 1014 10 16 0.00 0.00
3:35 pm 15:35 Partly Cloudy 86 30 75 24 70 70 W 3 6 29.94 1014 10 16 0.00 0.00
3:55 pm 15:55 Mostly Cloudy 86 30 73 23 66 66 Calm 29.93 1013 10 16 0.00 0.00
4:15 pm 16:15 Mostly Cloudy with Rain 86 30 77 25 75 75 SSW 7 11 29.92 1013 7 11 0.00 0.00
4:35 pm 16:35 Cloudy 82 28 77 25 84 84 WNW 3 6 29.92 1013 10 16 0.00 0.00
4:55 pm 16:55 Cloudy with Light Rain 82 28 79 26 89 89 SSW 3 6 29.91 1013 7 11 0.00 0.00
5:15 pm 17:15 Mostly Cloudy with Light Rain 82 28 77 25 84 84 Calm 29.91 1013 10 16 0.00 0.00
5:35 pm 17:35 Partly Cloudy 84 29 79 26 84 84 Calm 29.90 1012 10 16 0.00 0.00
5:55 pm 17:55 Mostly Cloudy 84 29 77 25 79 79 SSE 6 9 29.88 1012 10 16 0.00 0.00
6:15 pm 18:15 Partly Cloudy 82 28 79 26 89 89 S 5 7 29.88 1012 10 16 0.00 0.00
6:35 pm 18:35 Sunny 84 29 77 25 79 79 S 5 7 29.87 1011 10 16 0.00 0.00
6:55 pm 18:55 Sunny 82 28 77 25 84 84 S 5 7 29.87 1012 10 16 0.00 0.00
7:15 pm 19:15 Sunny 82 28 77 25 84 84 SW 3 6 29.88 1012 10 16 0.00 0.00
7:35 pm 19:35 Sunny 82 28 77 25 84 84 SW 5 7 29.89 1012 10 16 0.00 0.00
7:55 pm 19:55 Sunny 82 28 77 25 84 84 SW 3 6 29.89 1012 10 16 0.00 0.00
8:15 pm 20:15 Sunny 82 28 77 25 84 84 SW 5 7 29.89 1012 10 16 0.00 0.00
8:35 pm 20:35 Clear 81 27 77 25 89 89 WSW 3 6 29.91 1013 10 16 0.00 0.00
8:55 pm 20:55 Clear 81 27 77 25 89 89 SSW 3 6 29.91 1013 10 16 0.00 0.00
9:15 pm 21:15 Clear 81 27 77 25 89 89 SW 5 7 29.91 1013 10 16 0.00 0.00
9:35 pm 21:35 Clear 79 26 77 25 94 94 SW 5 7 29.92 1013 10 16 0.00 0.00
9:55 pm 21:55 Clear 79 26 77 25 94 94 SW 6 9 29.92 1013 10 16 0.00 0.00
10:15 pm 22:15 Clear 79 26 77 25 94 94 SW 3 6 29.92 1013 10 16 0.00 0.00
10:35 pm 22:35 Clear 79 26 77 25 94 94 SW 3 6 29.92 1013 10 16 0.00 0.00
10:55 pm 22:55 Clear 77 25 77 25 100 100 WSW 3 6 29.91 1013 10 16 0.00 0.00
11:15 pm 23:15 Clear 77 25 75 24 94 94 WSW 5 7 29.91 1013 10 16 0.00 0.00
11:35 pm 23:35 Clear 77 25 75 24 94 94 WSW 3 6 29.90 1013 10 16 0.00 0.00
11:55 pm 23:55 Clear 77 25 75 24 94 94 WSW 6 9 29.91 1013 10 16 0.00 0.00

Powered by AerisWeather